TimeEDT,TemperatureF,Dew PointF,Humidity,Sea Level PressureIn,VisibilityMPH,Wind Direction,Wind SpeedMPH,Gust SpeedMPH,PrecipitationIn,Events,Conditions,WindDirDegrees,DateUTC
12:15 AM,19.4,12.2,74,29.97,10.0,WNW,8.1,-,N/A,,Clear,300,2013-03-21 04:15:00
12:55 AM,19.4,12.2,74,29.97,10.0,WNW,5.8,-,N/A,,Mostly Cloudy,290,2013-03-21 04:55:00
1:15 AM,19.4,12.2,74,29.96,10.0,West,5.8,-,N/A,,Overcast,280,2013-03-21 05:15:00
1:35 AM,19.4,12.2,74,29.96,10.0,West,6.9,-,N/A,,Mostly Cloudy,280,2013-03-21 05:35:00
2:15 AM,19.4,14.0,80,29.95,10.0,West,4.6,-,N/A,,Clear,270,2013-03-21 06:15:00
2:35 AM,19.4,14.0,80,29.95,10.0,West,4.6,-,N/A,,Mostly Cloudy,270,2013-03-21 06:35:00
2:55 AM,19.4,14.0,80,29.95,10.0,West,4.6,-,N/A,,Overcast,280,2013-03-21 06:55:00
3:15 AM,19.4,14.0,80,29.95,10.0,West,5.8,-,N/A,,Overcast,260,2013-03-21 07:15:00
3:35 AM,19.4,14.0,80,29.94,10.0,West,6.9,-,N/A,,Overcast,260,2013-03-21 07:35:00
3:55 AM,19.4,14.0,80,29.94,10.0,West,5.8,-,N/A,,Overcast,280,2013-03-21 07:55:00
4:15 AM,19.4,12.2,74,29.94,10.0,West,8.1,-,N/A,,Scattered Clouds,280,2013-03-21 08:15:00
4:35 AM,17.6,12.2,79,29.94,10.0,West,5.8,-,N/A,,Scattered Clouds,270,2013-03-21 08:35:00
4:55 AM,17.6,12.2,79,29.93,10.0,West,6.9,-,N/A,,Scattered Clouds,270,2013-03-21 08:55:00
5:15 AM,17.6,12.2,79,29.93,10.0,West,5.8,-,N/A,,Clear,270,2013-03-21 09:15:00
5:35 AM,17.6,12.2,79,29.93,10.0,West,4.6,-,N/A,,Scattered Clouds,260,2013-03-21 09:35:00
5:55 AM,17.6,14.0,86,29.93,7.0,West,6.9,-,N/A,,Scattered Clouds,260,2013-03-21 09:55:00
6:15 AM,17.6,14.0,86,29.93,10.0,WSW,5.8,-,N/A,,Mostly Cloudy,250,2013-03-21 10:15:00
6:35 AM,17.6,14.0,86,29.92,10.0,WSW,5.8,-,N/A,,Mostly Cloudy,250,2013-03-21 10:35:00
6:55 AM,17.6,14.0,86,29.93,10.0,West,5.8,-,N/A,,Mostly Cloudy,260,2013-03-21 10:55:00
7:15 AM,17.6,14.0,86,29.93,7.0,West,6.9,-,N/A,,Overcast,260,2013-03-21 11:15:00
7:35 AM,19.4,14.0,80,29.93,10.0,West,8.1,-,N/A,,Overcast,260,2013-03-21 11:35:00
7:55 AM,17.6,14.0,86,29.94,10.0,West,6.9,-,N/A,,Scattered Clouds,260,2013-03-21 11:55:00
8:15 AM,19.4,14.0,80,29.93,10.0,West,5.8,-,N/A,,Scattered Clouds,260,2013-03-21 12:15:00
8:35 AM,19.4,14.0,80,29.94,4.0,West,6.9,-,N/A,Snow,Light Snow,260,2013-03-21 12:35:00
8:55 AM,19.4,15.8,86,29.94,2.5,West,10.4,-,N/A,Snow,Light Snow,270,2013-03-21 12:55:00
9:15 AM,21.2,17.6,86,29.94,3.0,West,9.2,-,N/A,Snow,Light Snow,260,2013-03-21 13:15:00
9:35 AM,23.0,17.6,80,29.94,7.0,West,10.4,-,N/A,Snow,Light Snow,260,2013-03-21 13:35:00
9:55 AM,23.0,17.6,80,29.94,10.0,WSW,9.2,-,N/A,,Scattered Clouds,250,2013-03-21 13:55:00
10:15 AM,24.8,17.6,74,29.95,10.0,WSW,10.4,-,N/A,Snow,Light Snow,250,2013-03-21 14:15:00
10:55 AM,26.6,19.4,74,29.95,10.0,West,12.7,17.3,N/A,,Overcast,280,2013-03-21 14:55:00
11:15 AM,26.6,19.4,74,29.95,10.0,WNW,11.5,18.4,N/A,Snow,Light Snow,290,2013-03-21 15:15:00
11:35 AM,28.4,19.4,69,29.95,4.0,WNW,13.8,19.6,N/A,Snow,Light Snow,290,2013-03-21 15:35:00
11:55 AM,28.4,19.4,69,29.95,4.0,NW,13.8,21.9,N/A,Snow,Light Snow,310,2013-03-21 15:55:00
12:15 PM,30.2,21.2,69,29.96,3.0,WNW,15.0,18.4,N/A,Snow,Light Snow,300,2013-03-21 16:15:00
12:35 PM,30.2,19.4,64,29.96,7.0,WNW,13.8,19.6,N/A,Snow,Light Snow,290,2013-03-21 16:35:00
12:55 PM,30.2,19.4,64,29.96,5.0,West,15.0,18.4,N/A,Snow,Light Snow,280,2013-03-21 16:55:00
1:15 PM,28.4,19.4,69,29.96,3.0,WNW,15.0,23.0,N/A,Snow,Light Snow,300,2013-03-21 17:15:00
1:35 PM,32.0,19.4,60,29.96,10.0,WNW,13.8,24.2,N/A,,Mostly Cloudy,300,2013-03-21 17:35:00
1:55 PM,32.0,17.6,55,29.96,10.0,West,12.7,-,N/A,,Overcast,280,2013-03-21 17:55:00
2:15 PM,32.0,17.6,55,29.95,10.0,West,17.3,20.7,N/A,,Overcast,280,2013-03-21 18:15:00
2:35 PM,32.0,17.6,55,29.95,10.0,West,15.0,20.7,N/A,,Mostly Cloudy,280,2013-03-21 18:35:00
2:55 PM,32.0,17.6,55,29.95,10.0,NW,11.5,23.0,N/A,,Mostly Cloudy,310,2013-03-21 18:55:00
3:15 PM,30.2,17.6,60,29.95,10.0,West,17.3,20.7,N/A,,Overcast,280,2013-03-21 19:15:00
3:35 PM,32.0,17.6,55,29.95,10.0,West,16.1,23.0,N/A,,Overcast,280,2013-03-21 19:35:00
3:55 PM,32.0,17.6,55,29.95,10.0,West,15.0,26.5,N/A,,Mostly Cloudy,280,2013-03-21 19:55:00
4:15 PM,32.0,17.6,55,29.95,10.0,WNW,15.0,19.6,N/A,,Overcast,290,2013-03-21 20:15:00
4:35 PM,33.8,17.6,52,29.94,10.0,WNW,17.3,-,N/A,,Overcast,290,2013-03-21 20:35:00
4:55 PM,32.0,17.6,55,29.94,10.0,West,16.1,23.0,N/A,,Overcast,280,2013-03-21 20:55:00
5:15 PM,32.0,15.8,51,29.95,10.0,West,15.0,21.9,N/A,,Mostly Cloudy,280,2013-03-21 21:15:00
5:35 PM,32.0,17.6,55,29.95,10.0,WNW,12.7,-,N/A,,Mostly Cloudy,290,2013-03-21 21:35:00
5:55 PM,32.0,15.8,51,29.95,10.0,West,12.7,19.6,N/A,,Overcast,280,2013-03-21 21:55:00
6:15 PM,32.0,17.6,55,29.95,10.0,WNW,16.1,19.6,N/A,,Overcast,290,2013-03-21 22:15:00
6:35 PM,32.0,17.6,55,29.95,10.0,NW,11.5,17.3,N/A,,Overcast,310,2013-03-21 22:35:00
6:55 PM,32.0,14.0,48,29.96,10.0,WNW,12.7,-,N/A,,Mostly Cloudy,290,2013-03-21 22:55:00
7:15 PM,30.2,14.0,51,29.95,10.0,West,13.8,-,N/A,,Clear,280,2013-03-21 23:15:00
7:35 PM,30.2,15.8,55,29.96,10.0,West,13.8,-,N/A,,Clear,280,2013-03-21 23:35:00
7:55 PM,28.4,17.6,64,29.96,10.0,WNW,10.4,-,N/A,,Clear,300,2013-03-21 23:55:00
8:15 PM,28.4,17.6,64,29.97,10.0,NW,9.2,-,N/A,,Clear,310,2013-03-22 00:15:00
8:35 PM,28.4,15.8,59,29.97,10.0,WNW,6.9,-,N/A,,Clear,300,2013-03-22 00:35:00
8:55 PM,26.6,17.6,69,29.97,10.0,WNW,4.6,-,N/A,,Clear,300,2013-03-22 00:55:00
9:15 PM,24.8,15.8,69,29.97,10.0,WNW,3.5,-,N/A,,Clear,300,2013-03-22 01:15:00
9:35 PM,24.8,17.6,74,29.97,10.0,West,4.6,-,N/A,,Clear,280,2013-03-22 01:35:00
9:55 PM,23.0,17.6,80,29.98,10.0,West,5.8,-,N/A,,Clear,280,2013-03-22 01:55:00
10:15 PM,24.8,17.6,74,29.98,10.0,West,6.9,-,N/A,,Clear,280,2013-03-22 02:15:00
10:35 PM,23.0,17.6,80,29.99,10.0,WNW,4.6,-,N/A,,Clear,290,2013-03-22 02:35:00
10:55 PM,23.0,17.6,80,29.99,10.0,WNW,4.6,-,N/A,,Clear,290,2013-03-22 02:55:00
11:35 PM,23.0,17.6,80,29.99,10.0,WNW,6.9,-,N/A,,Clear,290,2013-03-22 03:35:00
11:55 PM,23.0,17.6,80,29.99,10.0,WNW,5.8,-,N/A,,Clear,290,2013-03-22 03:55:00